SES-21

Last updated on Wed Sep 17 2025 00:02:51 GMT+0000 (Coordinated Universal Time)

1 53961U 22123B 25258.98679777 .00000051 00000+0 00000+0 0 9990 2 53961 0.0317 64.1684 0000895 104.0576 51.2082 1.00270794 4463
UTC large
Height (km)
Speed (km/s)
/
Latitude / Longitude
Inclination (degrees)
Orbital Period (minutes)
Azimuth
Elevation
Range (km)
Doppler Factor

Next 0 passes for location: London (51.5072 / 0.1276)

Sorry there are no passes over London.